星链-32750 (STARLINK-32750)

导读

STARLINK-32750是美国SpaceX公司星链星座的成员,于2025年1月10日发射入轨。星链作为低轨宽带通信星座,该卫星运行在近地轨道,搭载Ku/Ka波段相控阵通信载荷与霍尔推进器,具备自主避撞能力,旨在为全球提供低时延高速互联网服务,寿命末期会主动离轨再入大气层销毁,减少空间碎片影响。

Basic Information
目录编号:
62572
目录名称:
STARLINK-32750
国际标识:
2025-006U
轨道中心:
EARTH
卫星名称:
星链-32750
卫星全名:
星链-32750 (STARLINK-32750)
卫星状态:
在轨 (已飞行603 天)
发射日期:
2025-01-10 UTC
国别 :
美国 (US)
星等 :
--
Orbit Information
数据来源 国际轨道数据
星历时间: 2026-09-04T16:49:38+0800
23小时前
查看轨道信息
半长轴: 6861.163km
偏心率: 0.000119
轨道倾角: 43.002°
近地点辐角 254.348°
升交点赤经 3.102°
平近点角 105.724°
近地点: 482.209km
远地点: 483.843km
周期: 94.266分钟
每日圈数: 15.275878
Detailed Information
固有亮度:
5
最大亮度:
2.5
卫星平台:
Starlink V1.0
覆盖范围:
全球
运营商:
太空探索技术公司
运营商所在国:
美国
制造商(研发单位):
太空探索技术公司
制造商所在国:
美国
使用方式:
暂无
Satellite Introduction
Starlink 计划是 SpaceX 推出的全球卫星互联网项目,通过发射低轨道卫星,为全球尤其是偏远地区提供高速、低延迟的互联网服务。自 2019 年起,Starlink 已部署数千颗卫星,旨在缩小全球数字鸿沟,推动互联网普及。该项目还为军事、航空等行业提供通信支持,带来广泛经济效益。
2D Orbit Map
3D Orbit Map
Orbit Altitude Analysis Chart
Orbit Inclination Analysis Chart
Orbit Comprehensive Analysis Chart
View Comprehensive Chart
Conjunction Data List
Event ID Objects TCA Miss Dist (km) Collision Risk Probability Collision Risk Index (CRI) Action
CDM_260907-145005-712906-257221
2026-09-07T
14:50:58+0000
0.312 km
远距离
2.175009E-4 高风险 0.82
CDM_260903-045605-668806-257221
2026-09-03T
04:56:55+0000
0.903 km
远距离
7.789185E-6 低风险 0.53
CDM_260903-023505-668806-257221
2026-09-03T
02:35:40+0000
1.795 km
极远距离
9.22857E-7 极低风险 0.34
CDM_260903-040905-668806-257221
2026-09-03T
04:09:50+0000
1.897 km
极远距离
8.105348E-7 极低风险 0.33
CDM_260907-131605-712906-257221
2026-09-07T
13:16:49+0000
2.706 km
极远距离
5.874721E-7 极低风险 0.3